Location: Bonny Doon Airfield
(37.0704°N, 122.1252°W)
Time: 17:20:18
(UTC-07:00)

Tiangong 1 - Pass Details

Date: 13 October 2017
Orbit: 294 x 320 km, 42.8° (Epoch: 17 October)

Event Time Altitude Azimuth Distance (km) Brightness Sun altitude
Rises 19:55:12 0° 296° (WNW) 2,037 6.0 -17.0°
Reaches altitude 10° 19:57:13 10° 302° (WNW) 1,202 4.5 -17.4°
Enters shadow 19:59:33 46° 352° (N) 424 1.3 -17.9°
